Theta_e
316 315 315 314 314 313 313 312 312 311 309 314 309 316 314 312 311 322 326 325 320 310 304 312 311 308 306 310 310 311 309 307 307 306 308 306 307 304 303 303 302 304 303 302 301 301 300 303 303 307 307 308 310 311 310 311 311 310 305 308 308 320 302 297 299 301 303 307 311 313 314 312 308 308 308 306 302 304 298 295 300 297 300 294 295 293 298
315 315 315 314 313 313 313 312 312 310 309 306 309 315 312 313 311 313 317 319 317 307 304 299 299 305 308 309 309 311 309 308 306 305 306 305 305 304 303 303 306 303 305 302 300 302 296 303 303 303 309 307 313 311 310 313 309 308 306 304 311 301 302 299 294 293 296 300 303 307 311 311 306 304 306 307 308 311 308 301 303 298 299 300 292 289 296
316 315 315 314 313 313 313 312 312 310 309 309 312 316 316 314 315 316 316 319 311 304 304 302 300 304 305 306 303 307 307 308 306 306 305 307 305 305 302 304 304 303 304 302 302 303 301 300 304 306 307 309 315 311 310 314 312 318 321 330 318 304 303 298 292 289 288 290 292 295 301 303 311 307 305 306 308 310 304 299 300 291 302 303 296 294 300
316 315 315 314 313 313 313 312 312 310 309 307 314 320 314 309 304 309 309 311 308 308 309 306 304 304 305 302 303 306 304 307 307 306 307 307 307 306 305 306 305 303 302 300 300 300 304 302 302 303 302 306 311 309 311 313 315 325 330 330 315 306 306 302 297 295 295 296 299 307 309 305 300 304 304 305 309 313 310 305 301 297 301 302 301 302 302
316 316 315 314 313 313 312 311 311 310 308 308 315 321 315 314 304 306 304 310 304 304 304 305 305 304 306 297 304 302 303 303 305 307 303 306 306 306 305 305 303 302 301 299 299 303 303 305 304 303 302 304 305 307 307 308 320 328 323 324 310 304 299 303 303 303 302 304 304 306 308 304 304 305 305 310 311 314 313 308 305 309 297 294 303 307 305
317 317 316 315 314 314 313 311 310 309 308 306 314 312 314 301 309 314 316 303 296 299 302 306 305 308 307 303 305 302 302 301 299 304 308 307 307 302 304 305 305 304 302 301 298 300 301 302 299 303 303 302 304 303 307 306 316 320 312 316 309 302 299 303 305 303 305 305 306 307 309 306 305 305 309 310 312 314 312 312 314 314 299 297 304 306 307
317 317 317 316 316 315 315 313 310 308 307 309 317 309 312 313 313 314 320 306 309 306 309 309 304 305 310 304 304 301 302 300 302 303 305 306 304 304 298 302 304 304 304 302 299 300 296 296 302 303 301 301 300 299 303 306 306 306 309 312 311 304 299 306 306 303 303 305 305 307 306 306 307 310 311 311 312 313 315 315 316 315 312 312 309 307 308
317 317 317 317 316 316 315 313 310 309 307 314 315 311 308 307 308 310 316 319 312 307 306 306 303 301 308 298 303 304 302 301 303 306 304 302 303 307 302 303 304 304 303 303 300 303 303 301 298 304 302 299 303 301 301 299 302 303 303 311 311 303 301 309 304 299 301 304 306 306 308 307 307 312 313 313 312 314 315 316 317 318 315 315 311 310 309
317 317 317 317 316 316 315 314 311 310 309 317 312 312 314 313 316 317 312 311 313 313 304 303 301 299 300 299 305 306 304 302 305 304 307 305 305 305 302 304 304 305 305 304 303 304 304 303 303 304 303 298 302 300 300 303 299 302 302 309 311 308 301 307 303 297 297 303 304 305 306 309 311 310 311 311 311 310 314 313 318 314 312 314 312 310 311
317 317 317 317 316 316 315 314 312 310 310 316 312 312 318 316 318 321 316 308 325 301 306 303 300 298 303 307 306 306 304 306 305 301 306 309 310 308 306 306 303 303 304 303 304 306 306 306 307 307 307 306 305 305 304 303 301 300 301 305 302 304 303 300 300 296 294 302 303 304 305 304 303 306 309 311 313 315 316 318 319 317 318 313 310 309 317
317 317 317 316 316 315 315 314 312 311 310 309 313 315 318 314 312 313 315 306 304 302 302 301 301 307 307 308 306 309 308 307 307 302 302 309 309 310 310 307 305 301 304 307 311 310 310 309 309 309 309 308 307 307 306 306 305 303 302 301 301 306 305 301 301 295 295 301 303 304 299 293 296 312 316 314 313 315 314 313 316 318 318 315 318 318 321
317 317 317 316 316 315 315 314 313 312 310 308 308 315 320 319 315 314 311 306 305 306 302 301 303 307 307 308 308 306 306 307 307 309 306 307 309 311 310 308 307 301 309 313 311 309 310 311 311 312 312 311 311 310 307 305 305 307 305 301 298 303 304 301 303 298 295 299 300 295 290 293 311 316 316 316 316 316 317 318 318 319 320 319 318 319 320
317 317 317 316 316 316 315 314 313 312 310 310 310 316 322 322 315 313 311 308 305 306 299 302 307 309 309 308 307 307 308 309 311 312 310 309 308 310 310 309 307 309 314 311 311 308 306 304 305 307 308 309 310 311 310 309 310 309 305 305 302 298 301 301 300 299 298 295 294 289 292 305 312 314 316 319 319 317 315 314 317 319 320 320 319 320 322
317 317 317 317 316 316 315 315 314 313 311 310 309 312 319 321 314 311 309 306 307 312 305 303 306 307 308 307 307 307 308 308 308 309 308 311 309 308 311 313 313 313 313 312 307 306 300 301 299 300 301 304 303 303 307 309 311 311 310 311 311 304 304 301 297 301 294 294 294 296 304 305 308 310 313 314 310 312 310 303 310 318 321 322 321 322 322
317 317 317 316 316 316 316 315 315 314 312 310 311 313 317 321 318 313 312 312 308 309 304 299 304 307 307 308 309 304 304 306 305 305 310 312 310 311 312 314 315 315 314 309 302 304 301 300 295 295 295 295 292 295 306 303 309 311 311 311 312 306 303 301 296 298 298 294 291 292 292 291 298 310 315 320 320 320 318 313 307 318 322 324 323 321 323
317 317 317 317 316 316 316 315 315 314 312 310 311 309 314 323 320 317 314 311 306 297 302 308 310 309 306 307 308 306 303 303 304 303 303 307 309 311 314 316 315 316 314 310 306 303 301 297 296 291 291 294 300 299 296 302 302 308 310 311 311 311 307 302 299 297 298 294 289 290 290 294 304 309 315 319 321 321 320 311 304 314 320 323 323 323 323
316 317 317 317 316 316 316 315 315 314 313 310 308 308 313 322 321 315 312 312 311 305 310 313 311 308 302 303 307 304 306 302 305 300 299 302 307 309 312 315 315 314 311 307 304 301 298 298 297 295 297 302 296 296 301 299 298 300 306 308 308 305 303 301 297 297 296 293 291 291 297 298 307 312 316 320 321 322 310 296 298 314 320 323 323 322 324
316 316 316 316 316 316 316 315 314 314 312 310 309 307 312 320 322 319 314 310 307 308 311 317 309 303 302 306 305 310 310 307 305 304 303 305 308 307 310 312 309 313 313 305 303 298 297 296 293 294 293 303 304 301 291 298 295 296 298 300 299 301 300 301 297 296 298 300 293 296 301 311 314 315 318 320 323 315 300 294 304 318 320 322 323 323 324
315 316 316 316 316 316 316 315 315 314 312 310 310 311 316 318 321 321 313 310 307 305 314 320 317 311 313 314 310 312 312 311 307 301 300 300 304 310 313 314 313 304 309 302 302 298 296 297 299 297 294 297 301 294 299 295 295 301 301 298 298 299 299 300 299 296 295 294 293 293 298 309 315 317 318 321 316 302 298 312 321 321 321 322 324 324 325
315 315 316 316 316 316 316 315 315 314 313 311 310 306 311 314 321 321 315 308 309 307 314 316 318 315 317 309 305 303 306 307 306 302 300 299 305 310 304 301 307 307 304 304 299 301 297 296 296 299 295 295 298 302 296 298 304 299 299 302 298 298 297 294 294 297 297 295 293 291 287 303 318 316 316 318 307 308 317 319 321 323 322 323 325 325 324
315 315 316 316 316 316 316 315 315 315 314 313 311 307 309 318 317 319 320 315 308 306 308 321 322 319 320 312 312 312 309 305 306 303 306 305 309 305 293 298 302 304 301 302 297 298 300 296 296 298 302 300 299 299 294 294 297 304 306 302 302 305 296 293 297 302 292 290 291 290 300 310 318 316 309 315 317 320 322 322 319 323 323 323 323 324 325
315 315 315 316 316 316 315 315 315 314 314 313 312 308 306 313 314 318 320 317 310 307 311 320 323 321 324 325 320 314 315 314 315 314 307 306 309 307 307 308 307 305 308 308 302 302 302 302 303 299 296 297 301 297 298 291 290 298 306 304 295 306 301 302 295 301 301 295 299 307 312 316 318 319 319 321 323 323 325 325 323 321 322 325 323 323 325
314 314 315 315 315 315 315 315 315 314 314 313 312 307 305 308 311 316 317 313 317 319 322 321 323 324 328 332 323 319 318 319 318 315 312 306 305 307 306 305 305 314 313 310 301 301 302 304 299 303 299 300 300 297 296 297 295 298 297 305 303 310 313 309 306 303 309 312 312 316 315 315 316 321 324 323 324 325 327 324 322 323 324 325 324 325 326
314 314 315 315 315 315 315 315 315 315 314 314 312 308 307 308 310 315 317 315 310 307 311 317 315 312 311 315 318 319 320 319 319 316 317 314 304 305 308 311 312 313 311 312 312 307 306 306 305 306 298 303 302 296 292 291 296 300 299 300 305 311 313 309 303 306 300 293 309 311 314 316 317 320 323 325 326 324 326 324 324 324 326 326 327 327 327
314 314 314 315 315 315 315 315 315 314 314 314 312 311 311 310 314 315 312 307 306 305 302 308 313 316 318 319 318 316 318 321 327 318 317 316 312 306 306 311 313 307 307 313 315 312 310 304 304 302 298 304 304 296 301 297 296 305 297 298 301 303 312 306 306 306 303 303 309 313 315 317 320 319 318 318 320 322 324 325 325 326 328 328 328 329 328
314 314 314 314 314 314 314 315 315 315 314 314 313 308 306 307 312 314 314 313 312 309 304 304 311 321 319 317 316 318 322 322 320 319 318 318 318 316 313 316 317 316 315 317 313 311 308 307 306 304 300 301 308 299 299 300 299 306 301 300 306 308 313 301 307 304 307 311 313 314 315 316 318 320 321 322 323 323 323 326 327 327 327 327 329 330 329
313 314 314 314 314 314 314 314 315 314 314 313 312 310 308 310 314 313 312 311 306 305 303 302 307 312 316 314 319 322 323 318 316 316 317 318 317 317 317 315 313 315 315 313 314 312 309 307 305 303 305 303 309 305 305 304 304 302 302 306 312 308 301 306 304 299 299 301 306 312 306 306 312 316 322 323 324 325 326 327 327 328 327 326 327 328 330
314 314 314 314 314 314 314 314 315 314 314 313 312 311 311 311 315 319 319 316 307 299 298 299 302 308 316 316 324 323 320 320 316 315 314 315 316 315 315 314 314 314 313 310 305 307 306 304 302 308 311 310 305 302 308 308 307 303 302 303 309 305 306 305 302 299 300 308 312 313 314 314 315 316 320 322 326 328 325 324 325 326 328 328 328 326 327
313 313 313 313 313 314 314 314 315 314 314 313 311 312 314 314 316 320 317 319 316 310 306 306 309 309 308 314 322 319 320 315 316 314 314 312 315 316 315 315 314 313 314 312 310 308 306 306 309 307 306 312 306 301 303 298 298 297 301 308 313 312 314 312 310 308 310 313 313 315 314 314 317 320 322 322 325 327 324 324 325 326 328 328 329 329 327
313 313 313 313 314 314 314 314 315 314 314 311 309 313 312 315 319 316 317 319 316 313 305 304 299 303 315 320 318 320 319 317 315 315 314 314 316 316 316 317 317 318 315 313 310 306 307 308 310 311 314 315 307 304 301 299 299 300 307 311 312 314 316 316 316 312 310 315 316 318 318 319 322 322 322 323 325 326 324 324 325 327 329 329 329 329 330
314 313 313 314 314 314 314 314 314 314 313 308 309 310 305 303 311 319 316 318 316 313 309 307 303 310 313 319 320 319 320 316 311 313 313 315 315 316 319 319 318 318 312 313 310 309 311 306 308 309 314 316 312 303 300 299 297 299 307 310 311 312 314 316 317 318 317 317 318 319 320 321 322 322 322 322 323 324 324 325 328 331 331 330 330 329 330
313 313 313 314 314 314 314 315 315 315 310 306 308 311 309 309 314 316 315 315 317 314 308 305 304 306 307 314 318 320 316 318 317 318 314 322 316 318 319 317 316 319 315 311 313 309 308 309 309 310 309 314 314 305 304 301 298 300 308 310 312 312 314 316 316 317 318 318 318 317 316 317 319 317 317 321 323 325 325 325 327 329 332 331 331 331 332
313 313 313 314 314 314 314 315 315 314 311 313 315 315 314 314 315 315 314 313 313 310 313 307 302 306 305 308 316 317 317 313 310 310 311 319 317 317 315 322 319 318 332 315 305 303 311 312 310 308 310 316 309 306 303 300 302 308 311 313 313 314 315 317 318 318 317 318 319 313 312 315 317 320 322 322 323 325 326 326 328 330 330 330 328 329 329
313 313 313 314 314 315 315 315 315 314 313 311 314 316 319 318 316 315 315 314 311 313 314 308 305 302 304 314 308 311 316 307 306 308 305 317 321 315 312 314 316 313 315 310 313 311 312 315 309 309 313 309 310 305 300 303 309 310 312 314 315 315 316 316 316 316 317 318 319 319 320 321 321 321 321 323 324 325 327 327 328 325 326 327 327 328 329
313 313 314 314 314 315 315 314 311 313 313 314 317 317 316 318 317 316 317 314 307 309 309 309 307 302 300 301 302 304 315 309 305 307 305 307 321 313 314 311 312 307 311 317 311 308 307 310 313 306 301 308 304 299 301 304 308 311 312 313 314 314 315 314 314 315 317 318 319 319 320 321 320 318 319 321 322 323 325 326 326 325 324 324 326 328 328
313 314 314 314 314 314 313 314 310 313 312 314 315 323 321 318 316 315 317 319 314 306 303 303 304 299 300 296 295 304 314 306 311 310 311 312 311 317 314 309 303 308 316 311 305 310 308 316 309 300 305 302 299 301 304 308 309 311 311 312 313 313 313 314 315 316 318 318 319 319 320 320 320 320 321 321 322 323 325 326 326 326 325 323 325 326 327
313 313 314 314 314 315 314 316 319 318 316 317 320 323 320 320 320 319 317 314 318 319 308 304 300 300 300 299 304 308 308 300 306 304 306 307 306 312 311 306 303 310 308 306 307 306 311 319 307 302 300 300 302 307 311 312 311 311 313 314 315 315 314 313 316 317 317 317 317 317 318 318 318 318 319 320 320 323 324 324 324 323 322 323 325 324 324
312 313 312 312 313 311 313 318 319 320 322 322 323 318 315 316 310 311 312 310 316 317 310 307 300 303 307 305 301 309 306 302 305 301 302 310 303 304 310 307 306 309 300 303 307 314 311 308 305 301 302 305 308 313 314 313 314 315 315 315 315 314 314 315 316 315 314 313 313 314 316 316 316 316 317 319 321 321 321 323 325 326 326 326 326 326 326
313 313 314 314 312 310 311 316 320 321 319 320 317 311 309 315 310 308 309 311 311 306 311 306 303 306 307 306 306 311 307 303 301 301 300 306 303 301 308 300 307 307 298 301 305 315 301 301 301 301 300 305 306 308 313 315 315 317 317 317 317 317 317 317 317 315 314 314 315 316 316 315 316 317 318 319 321 321 322 324 326 326 326 326 326 326 326
312 308 307 308 308 310 316 318 319 316 316 311 313 310 307 313 304 299 312 306 301 309 311 305 310 309 312 308 305 300 311 304 300 300 301 302 311 303 307 304 306 304 297 298 302 312 301 297 299 299 298 304 306 310 313 315 315 316 316 317 318 318 318 318 318 319 319 319 320 320 320 320 321 320 320 320 321 321 324 326 326 325 325 324 327 326 326
308 306 307 306 307 308 310 312 313 315 311 308 309 311 308 300 307 309 306 301 298 302 313 309 308 306 310 309 305 302 309 316 311 310 305 300 311 310 303 301 308 301 299 298 306 308 302 299 298 298 301 305 308 312 314 315 315 316 316 317 318 319 319 319 319 320 319 319 319 319 320 322 322 323 322 323 323 322 325 325 325 325 325 323 323 325 330
308 305 307 310 310 311 310 311 311 310 310 311 305 299 300 304 308 305 304 296 298 303 306 306 301 301 302 306 305 306 308 313 311 309 305 302 310 305 302 304 307 300 296 302 309 304 300 296 295 297 302 306 310 313 314 314 315 315 316 317 318 319 319 319 319 320 320 320 320 320 321 321 322 323 324 323 321 324 325 325 324 324 324 325 327 328 328
313 313 311 308 310 309 310 301 310 310 294 295 296 289 295 296 300 300 302 306 310 305 306 312 308 309 311 311 306 308 306 314 307 308 305 302 309 308 303 301 302 296 303 310 304 299 296 295 296 299 305 308 311 313 314 315 316 316 317 318 318 319 319 319 320 319 320 319 319 320 321 321 322 323 325 325 326 326 326 326 325 326 327 325 325 327 327
312 312 308 308 306 311 310 292 311 308 295 294 289 286 293 295 297 303 300 300 305 305 306 302 304 303 300 307 305 303 306 308 315 311 308 310 305 303 301 297 300 305 309 304 300 296 297 299 301 303 307 310 313 313 314 315 316 316 317 318 319 319 320 320 321 320 320 321 322 322 321 320 321 322 325 326 326 324 324 323 326 328 327 325 326 327 327
307 307 307 302 294 301 299 288 302 298 289 293 297 297 299 297 299 301 298 305 305 303 306 306 306 305 304 307 307 308 306 303 314 304 303 306 302 302 299 297 302 303 299 297 299 299 299 298 304 306 308 309 311 313 315 316 316 316 316 317 318 319 320 319 320 320 319 320 320 321 320 320 320 320 323 324 325 326 324 324 327 328 326 326 326 326 327
303 295 293 291 292 291 290 288 290 289 298 302 301 301 302 303 303 303 307 309 305 305 304 306 307 308 302 305 301 300 307 307 302 304 306 304 297 295 302 305 304 297 298 296 295 292 294 299 303 306 308 310 313 315 315 315 316 317 317 316 317 318 319 319 319 319 319 319 320 320 319 319 320 322 323 323 323 324 326 326 328 328 328 327 326 325 326
304 306 302 296 291 291 301 291 293 297 301 303 303 305 305 307 308 306 309 307 304 306 307 307 307 305 302 300 303 303 305 306 300 304 305 298 297 299 305 299 295 295 294 294 294 294 297 301 306 308 310 313 314 314 314 315 316 317 317 317 318 318 319 319 319 319 320 320 319 320 319 319 321 323 325 322 322 323 326 327 328 327 326 324 325 325 325
294 303 303 292 289 291 293 300 304 304 306 306 306 307 308 309 308 306 308 310 309 309 307 307 303 301 300 305 304 299 299 302 299 299 303 300 302 298 294 297 296 298 297 295 294 297 300 304 307 310 312 314 313 313 315 316 316 317 317 317 319 319 319 319 319 319 319 319 318 318 319 319 321 321 322 322 323 324 326 326 325 325 324 323 324 324 324
306 299 290 290 299 301 301 304 304 301 304 306 308 308 308 308 306 308 308 311 308 306 307 305 305 302 299 303 302 298 296 300 295 294 301 298 295 290 293 292 294 293 299 300 298 300 303 307 310 311 312 313 313 314 315 317 318 318 319 319 320 320 320 320 320 320 320 320 319 319 318 320 322 322 321 322 323 324 325 325 325 324 324 323 323 322 322
298 294 300 299 299 301 304 305 303 300 303 305 306 306 307 307 307 308 310 310 309 310 308 307 306 298 300 302 291 294 294 298 300 296 295 294 295 297 296 293 296 295 297 302 303 304 307 309 310 310 311 311 313 314 315 317 319 319 320 320 321 321 320 320 320 319 320 319 320 321 322 324 322 321 320 320 322 324 324 323 324 324 323 323 323 321 321
302 301 295 304 300 299 301 297 297 297 300 301 302 304 307 307 310 310 313 312 310 305 303 299 300 298 288 289 289 286 295 301 297 295 294 295 300 299 296 295 297 299 302 305 308 309 309 311 312 310 310 311 311 313 315 316 317 318 319 320 321 321 321 322 322 322 322 323 323 325 322 322 322 322 323 323 322 321 319 320 321 321 321 320 319 318 318
293 292 295 301 304 304 304 303 303 302 302 303 303 305 309 309 313 313 318 313 308 302 300 302 299 290 287 288 296 299 302 298 295 296 294 299 303 299 299 298 302 305 307 307 309 311 313 313 313 315 313 313 315 312 315 316 316 317 318 319 320 319 319 320 322 323 322 322 322 322 322 323 323 322 321 320 320 318 317 317 319 320 320 320 320 319 317
Wind_Speed
26 26 27 27 26 25 24 24 23 23 22 3 2 0 2 1 2 6 4 4 2 4 2 1 1 1 3 2 4 4 4 2 5 4 4 3 4 3 3 4 4 6 4 5 6 8 2 4 2 1 1 0 1 6 5 5 5 2 2 1 4 3 2 4 4 6 6 5 1 2 7 5 9 9 8 8 6 6 3 6 5 2 3 2 1 1 3
26 27 27 28 28 27 26 24 22 20 14 1 1 2 1 1 2 5 5 3 6 3 1 5 5 2 6 7 5 7 4 6 5 4 4 3 2 3 4 5 5 4 6 4 3 5 3 5 6 2 1 1 4 6 7 7 3 2 1 1 3 2 1 2 3 4 7 8 7 3 4 9 4 6 9 10 12 14 7 2 2 5 4 9 4 2 2
26 27 28 29 29 30 29 28 23 20 13 2 0 1 0 1 2 2 6 5 4 1 2 3 3 5 4 3 7 2 3 3 6 5 7 4 4 3 5 5 4 5 3 4 4 4 3 2 7 9 4 5 3 8 9 5 4 2 3 1 1 1 2 2 1 2 3 4 3 3 7 7 5 6 12 10 11 13 9 6 2 4 6 6 4 4 7
25 26 27 29 30 30 31 31 29 22 15 1 0 1 1 2 2 4 5 5 3 1 1 3 4 3 3 5 4 5 2 2 7 7 6 8 5 7 4 7 5 9 8 7 5 6 7 6 2 5 5 5 4 7 11 6 1 3 7 6 1 0 0 1 3 2 3 5 4 4 3 2 1 12 12 7 6 3 2 1 4 2 2 2 6 8 5
25 26 27 28 29 30 31 32 31 28 17 3 2 1 2 0 4 2 4 6 4 2 4 3 4 2 1 3 3 6 6 4 3 10 3 6 6 3 8 6 7 5 6 4 3 7 6 9 4 6 4 4 5 11 6 10 5 8 5 7 2 2 2 2 0 1 2 3 3 3 3 1 6 6 5 7 6 5 7 6 1 3 3 2 5 5 8
25 26 27 28 28 30 31 32 31 30 25 3 1 5 4 3 1 2 1 2 1 5 5 5 7 6 5 2 2 6 6 6 4 3 4 5 8 4 2 7 6 7 7 4 4 8 4 3 5 6 3 5 9 9 10 5 9 9 2 4 3 2 0 2 3 3 3 4 6 7 2 3 5 3 3 5 3 6 6 3 2 0 2 3 5 4 11
25 25 26 27 28 30 31 32 33 30 30 14 3 7 4 3 1 1 3 1 2 1 3 5 8 9 5 2 5 5 7 7 4 1 3 4 4 5 3 6 8 8 7 5 2 4 4 5 4 2 5 5 6 4 7 7 6 5 4 2 1 1 0 2 2 2 4 6 7 8 3 5 1 5 5 4 3 4 3 3 2 4 4 2 1 1 3
25 25 25 26 28 29 29 31 33 31 29 12 14 7 3 4 3 5 5 1 2 5 5 4 7 8 5 3 4 2 5 6 6 4 4 2 2 1 5 4 6 6 4 4 2 1 2 3 4 3 4 6 1 2 3 4 5 5 6 1 2 3 1 5 2 4 4 5 6 5 1 2 6 8 9 9 3 3 3 5 5 2 6 12 8 12 8
25 25 26 27 27 29 28 29 32 32 26 9 8 4 5 3 1 0 2 6 5 3 3 4 5 5 5 5 3 2 3 3 1 3 2 4 2 2 3 3 4 5 5 6 6 3 4 6 7 6 5 6 3 1 3 1 6 6 3 1 2 2 2 2 2 4 6 4 4 7 6 7 9 8 11 13 10 3 5 5 6 5 5 7 8 13 8
27 27 26 26 26 27 27 27 28 30 23 6 3 6 5 2 2 2 1 1 2 2 2 4 5 7 2 2 5 4 2 5 3 1 4 1 1 2 5 5 5 3 3 4 4 7 6 9 10 8 7 7 7 6 7 5 5 2 3 1 2 2 1 0 2 2 2 5 5 7 3 2 3 6 7 10 10 3 3 2 9 10 2 9 10 3 5
25 27 25 25 25 26 26 27 26 28 15 9 6 5 7 6 6 5 3 4 7 7 4 7 6 1 1 7 4 9 7 6 4 5 2 1 2 5 7 6 4 2 2 6 7 6 9 8 9 7 7 9 9 9 9 11 9 7 3 1 1 2 2 0 1 0 2 5 7 4 1 2 2 4 3 4 6 8 7 6 7 7 7 4 3 1 4
24 24 25 25 25 25 25 25 25 27 17 5 1 2 4 3 0 1 3 7 3 5 7 4 4 4 5 4 8 7 8 8 5 3 4 4 5 6 6 5 4 4 5 8 7 5 5 4 4 4 3 4 7 8 9 9 9 7 6 6 4 1 1 1 1 1 1 3 5 3 0 2 1 5 7 6 6 6 2 1 6 8 7 6 10 11 11
25 24 26 27 25 24 24 24 24 24 23 10 2 4 6 4 1 2 1 4 5 5 6 5 7 8 7 9 8 7 6 5 7 7 8 7 8 9 5 4 4 6 7 8 7 5 3 3 4 3 6 8 4 6 10 2 7 8 1 1 2 1 4 2 0 1 1 3 1 0 2 2 4 7 7 8 3 4 8 4 9 11 8 5 7 8 8
24 25 25 26 25 24 23 24 24 24 24 15 5 4 5 6 5 4 3 3 2 3 1 4 11 10 8 7 4 5 7 9 6 5 6 6 7 7 7 6 5 5 6 4 4 2 2 4 2 6 7 7 5 6 8 5 9 13 14 8 3 2 2 3 1 0 1 2 2 2 3 4 4 5 3 8 4 6 4 3 4 8 10 12 11 10 7
24 24 25 25 24 24 24 24 23 24 24 20 4 4 5 6 3 1 1 2 1 2 5 5 4 4 6 4 3 6 6 4 7 5 3 4 4 3 6 7 6 9 6 4 5 3 1 1 3 4 5 6 4 4 4 5 4 6 9 9 6 2 5 5 3 2 2 3 0 3 1 2 5 4 5 6 6 4 3 0 2 3 11 12 12 12 8
24 24 24 24 25 25 25 24 23 23 23 23 6 4 5 5 3 1 1 2 2 5 6 4 3 3 2 3 4 5 3 4 5 1 4 3 3 3 5 7 8 10 8 3 2 2 2 3 1 3 2 2 2 2 3 6 6 6 7 10 8 7 3 3 7 2 2 3 3 1 2 4 4 7 8 9 8 9 4 2 3 1 8 10 10 10 6
24 23 24 24 25 25 24 23 23 23 22 21 8 5 4 8 6 3 2 2 2 2 2 9 3 4 5 5 7 6 3 3 4 3 4 5 3 4 6 7 5 10 9 4 6 5 6 5 2 2 0 2 3 2 3 2 5 8 13 9 11 9 5 5 5 3 1 3 2 0 1 3 3 5 9 12 11 9 3 2 2 3 10 9 8 8 7
23 23 24 24 24 24 24 23 23 22 23 24 11 2 5 6 8 4 3 2 2 2 4 7 5 5 5 1 2 1 2 3 4 1 1 3 2 3 4 4 7 5 6 6 3 4 5 3 4 1 3 2 2 2 2 3 3 3 4 6 4 5 5 5 2 1 2 4 0 1 0 1 5 9 12 12 9 2 2 5 2 8 12 12 10 9 7
22 22 23 24 24 25 24 24 22 23 21 23 14 2 2 4 8 6 2 3 3 2 6 7 3 4 3 2 3 2 1 1 1 2 2 5 2 4 2 1 2 4 6 3 3 3 2 3 1 1 2 4 2 1 1 3 2 2 3 5 5 3 2 3 4 4 3 1 1 2 1 1 4 11 10 8 3 0 4 1 3 7 10 11 9 9 9
21 22 23 23 23 23 24 24 25 23 22 22 13 1 8 8 5 6 6 2 1 2 6 3 4 3 4 3 3 4 3 5 1 4 1 0 5 4 6 6 7 3 6 3 5 2 3 2 2 1 3 1 1 1 2 2 0 0 2 1 1 1 1 2 2 2 0 1 1 1 1 2 4 13 4 7 3 3 5 8 9 5 8 10 9 8 9
20 20 21 22 21 21 22 24 23 23 21 20 14 5 6 3 7 6 4 0 2 1 4 3 3 4 2 3 1 3 3 1 1 2 2 2 3 1 3 1 3 1 2 2 3 2 1 2 4 1 1 1 3 3 3 2 3 2 1 1 1 0 2 2 1 0 1 0 1 1 2 4 2 4 1 2 0 4 5 4 9 10 7 8 8 9 7
19 20 21 21 21 21 22 21 22 22 22 20 16 3 2 5 5 4 5 1 2 4 4 4 2 5 7 6 7 3 6 6 3 3 2 0 2 4 3 2 2 1 0 1 3 2 3 1 1 2 2 3 3 1 1 3 2 3 2 2 1 2 1 3 3 2 1 2 3 3 2 3 2 1 3 4 5 4 6 4 6 9 8 5 7 9 9
19 19 20 20 20 21 21 20 20 21 21 20 13 3 4 8 9 9 6 1 3 3 3 3 2 3 3 4 5 6 5 6 5 3 3 3 1 2 4 2 1 0 1 2 3 3 3 1 2 2 1 0 1 3 2 1 1 2 2 2 1 1 1 1 1 3 3 5 5 3 4 3 2 2 3 5 6 7 6 5 7 6 6 5 7 7 7
18 19 19 19 19 20 21 21 21 18 18 17 12 5 4 6 8 9 5 1 3 5 3 1 3 3 6 6 3 3 4 3 4 4 3 5 2 1 2 0 2 1 1 3 5 3 2 1 3 0 1 3 1 0 1 3 1 1 1 2 0 1 1 0 1 2 3 3 1 2 4 4 2 2 3 5 7 6 5 7 6 8 5 7 4 2 6
18 18 18 19 19 19 20 20 20 18 16 18 13 4 5 5 2 6 4 5 6 4 0 6 2 3 3 8 1 2 4 4 3 4 4 4 5 3 3 4 4 5 4 5 1 4 1 1 2 1 1 3 3 3 1 1 5 1 1 3 1 1 2 0 2 3 2 4 4 6 6 4 3 3 2 5 7 8 7 7 9 7 1 4 4 3 6
18 18 18 19 19 19 20 19 19 16 16 16 11 5 3 5 5 5 2 1 0 0 1 3 6 4 8 9 2 2 2 5 5 6 6 7 7 7 4 0 1 1 2 3 4 3 3 0 1 1 1 4 2 1 2 5 1 1 2 3 1 3 1 1 3 3 4 3 3 4 7 3 1 3 5 6 7 8 10 9 10 11 3 4 2 2 4
19 18 18 19 19 19 18 19 18 16 17 16 8 3 3 6 5 1 2 4 1 1 3 2 5 7 9 12 7 3 5 5 6 7 7 6 6 3 2 1 1 1 2 1 0 2 1 1 1 2 3 3 2 2 2 1 1 1 1 3 2 1 0 2 3 3 3 1 4 4 5 6 8 6 4 5 7 6 7 9 11 13 7 3 5 4 2
19 18 18 17 17 16 17 18 17 17 17 16 7 5 4 4 4 2 4 2 3 1 2 3 5 9 8 6 4 3 6 7 6 5 4 6 3 4 5 4 3 2 1 2 1 1 0 0 3 3 1 1 1 2 0 1 1 1 0 2 1 1 2 0 1 1 4 5 5 2 3 6 7 6 6 8 5 4 6 9 11 13 10 4 4 12 9
19 19 17 17 17 17 15 17 17 15 16 14 7 5 1 5 6 4 4 4 2 1 0 4 4 2 1 5 9 10 4 4 7 4 4 1 4 3 5 6 4 3 2 2 1 1 1 3 2 1 2 4 2 2 2 1 0 1 2 2 1 2 3 3 5 3 5 6 8 5 2 4 7 8 8 8 4 3 7 8 9 9 12 8 5 1 6
20 18 17 17 16 16 17 16 15 13 13 7 3 2 2 1 0 2 5 5 4 1 1 3 4 4 3 3 5 4 5 4 7 7 2 3 3 4 3 3 0 1 2 3 3 1 2 2 2 2 0 2 1 1 0 1 0 2 2 2 3 2 3 5 3 3 5 4 4 4 5 7 7 7 8 8 4 3 6 8 9 8 11 10 3 1 2
20 17 18 18 17 17 18 16 14 11 8 3 1 1 1 1 1 1 6 5 4 1 0 1 4 5 6 3 4 7 6 3 3 2 3 5 3 2 1 1 0 2 1 1 1 2 1 1 0 2 1 0 2 1 1 0 1 1 1 2 4 4 4 5 5 6 6 7 7 5 3 6 6 5 5 4 5 5 5 5 8 3 7 10 1 1 5
20 19 18 17 17 18 18 16 13 9 2 1 1 1 1 1 1 4 5 4 4 2 1 2 3 3 2 4 3 3 2 1 2 2 2 1 1 1 1 2 2 1 2 3 1 1 1 3 1 1 1 0 2 1 0 0 1 1 2 4 4 4 4 5 4 5 4 5 4 5 5 6 5 5 6 8 7 6 6 6 7 1 5 9 1 1 5
20 19 19 17 18 19 19 17 13 7 5 7 12 15 19 21 20 16 4 2 1 1 0 1 1 2 1 4 4 5 3 4 3 2 2 1 3 0 0 1 1 1 2 3 0 1 2 1 0 0 1 0 0 0 0 2 2 1 3 3 4 4 4 4 5 5 4 4 3 3 6 7 9 10 9 8 5 4 5 6 6 5 1 9 8 4 6
20 20 20 20 18 19 18 17 16 11 5 3 3 1 3 7 7 6 3 2 1 2 0 1 1 1 4 4 2 3 2 2 2 1 0 2 1 2 2 0 1 2 1 1 2 0 3 2 0 0 1 1 1 1 1 1 1 3 4 4 5 6 5 6 5 5 4 5 4 3 5 8 9 9 7 4 6 6 4 5 4 8 2 5 9 6 6
21 21 21 20 20 19 18 12 3 1 1 2 3 2 1 2 5 8 7 2 0 0 0 1 1 1 3 4 2 4 1 1 1 1 1 3 1 2 0 1 1 1 3 1 1 2 0 1 2 2 2 0 1 0 2 2 4 4 4 5 4 5 6 6 5 4 7 5 4 5 6 7 8 8 4 6 7 7 6 5 4 6 6 1 7 9 6
22 22 20 21 21 12 3 1 1 1 1 1 2 2 4 5 5 2 2 0 1 1 0 2 1 1 1 0 1 2 1 1 2 2 1 0 4 1 2 2 0 3 1 1 1 1 0 1 2 1 1 0 2 2 2 2 3 5 4 4 5 4 4 6 9 10 8 7 5 5 7 5 4 4 3 6 6 6 4 4 4 3 5 6 1 7 7
23 22 22 16 5 1 1 1 1 2 3 6 9 6 4 3 0 1 2 1 1 0 1 0 0 4 5 3 1 3 2 1 1 2 2 3 1 2 1 2 0 0 1 1 1 2 2 0 2 0 1 1 3 3 4 3 3 4 6 5 4 3 4 5 6 8 9 8 7 5 4 3 5 4 4 4 5 5 7 8 4 1 0 4 7 6 5
23 18 3 4 3 2 1 1 1 7 13 14 6 2 1 1 0 1 0 0 1 1 1 0 3 4 1 1 2 4 2 2 1 1 1 0 1 2 1 1 1 1 1 0 1 2 0 1 0 1 2 2 3 4 4 4 4 4 4 5 6 5 5 5 6 7 7 9 7 6 5 5 5 4 4 5 3 6 6 7 3 2 4 5 3 2 1
12 4 1 1 1 2 1 1 7 18 11 5 1 1 1 1 0 0 1 1 1 1 2 4 5 4 3 1 5 4 1 1 2 2 1 2 1 2 1 1 1 1 1 0 1 0 0 1 1 1 1 2 2 4 3 4 4 5 5 5 5 5 5 6 5 6 7 7 8 7 5 5 6 7 4 2 3 1 5 5 4 5 6 2 4 3 2
4 4 2 3 2 3 5 5 12 9 2 1 0 1 1 0 1 2 1 1 1 2 2 3 4 4 7 7 4 1 2 2 0 1 1 3 0 1 1 1 2 1 0 0 1 1 1 0 0 1 1 1 3 4 4 5 6 6 5 6 6 6 4 6 7 6 6 7 7 8 6 6 5 4 1 4 2 2 5 5 7 7 5 2 4 4 4
3 2 3 2 4 4 6 8 7 1 0 0 1 0 0 1 1 2 0 1 1 2 3 3 0 0 1 1 1 0 3 1 1 2 2 0 2 2 2 0 1 1 1 1 1 1 1 1 0 0 2 2 4 5 6 6 6 6 6 6 7 8 7 6 7 7 7 7 6 6 6 5 2 2 7 4 1 3 5 6 6 8 3 5 2 2 1
1 2 4 5 6 6 6 2 1 0 0 0 1 1 1 3 1 1 1 2 3 1 1 0 2 1 2 0 2 3 1 1 1 1 1 0 1 1 2 0 1 1 1 3 1 1 2 0 1 2 3 4 5 5 5 6 6 6 8 7 7 8 9 8 7 7 5 6 7 7 6 4 1 5 6 8 6 5 6 5 6 3 2 1 2 5 7
14 10 4 3 3 2 1 1 1 1 1 0 2 2 2 1 2 2 2 1 1 2 1 0 0 1 1 2 2 1 1 1 1 0 1 1 0 0 0 0 1 1 2 1 1 1 1 0 1 4 5 6 6 6 6 6 6 7 7 6 6 8 9 9 8 7 7 7 7 7 7 3 2 3 3 3 4 4 4 4 3 2 1 2 4 5 7
5 2 1 1 1 3 1 1 1 1 2 0 2 1 1 1 5 1 1 1 1 1 0 3 2 4 2 2 1 2 1 2 1 1 0 1 1 0 0 1 2 3 1 2 1 2 1 2 5 6 7 6 6 6 6 7 7 7 7 6 7 7 8 9 8 6 7 6 5 4 1 3 2 1 1 3 5 6 4 3 2 1 1 4 6 7 7
2 1 0 1 1 3 2 2 2 2 2 3 2 2 1 2 3 1 1 2 2 1 1 3 3 4 1 3 1 1 1 0 1 1 1 1 0 1 1 1 1 1 1 2 1 0 1 3 5 4 6 7 7 7 6 6 7 6 7 9 8 8 9 8 8 6 5 5 3 2 2 1 1 1 1 2 2 2 4 4 3 2 3 4 6 8 8
0 0 0 2 3 2 1 1 0 1 2 1 2 4 1 5 2 2 2 0 3 2 5 1 1 2 1 2 1 1 0 0 0 1 1 1 1 1 2 0 1 1 1 2 1 2 4 5 6 7 6 6 6 7 6 6 7 6 7 9 10 9 9 8 7 6 5 4 2 1 1 2 2 2 3 2 2 2 3 2 2 3 4 5 7 8 7
1 1 0 1 1 3 0 1 3 3 1 2 3 2 5 5 4 4 0 1 4 5 2 1 2 2 1 2 1 3 1 0 1 2 0 1 1 2 0 1 0 1 1 0 2 2 4 6 5 5 5 6 6 6 6 7 7 8 8 8 9 9 8 7 7 7 5 2 2 1 2 3 2 2 4 2 2 1 3 2 3 4 5 6 7 8 8
0 2 0 1 3 1 1 4 2 4 4 4 6 6 5 2 3 4 5 3 1 2 2 1 2 5 4 2 2 2 2 1 0 3 1 1 0 1 1 1 1 0 0 2 2 3 4 4 5 5 5 4 5 6 7 8 9 10 9 9 9 9 7 7 7 6 4 1 2 2 3 3 4 4 5 4 4 3 3 4 6 6 6 6 6 7 9
1 0 1 2 1 1 2 2 1 4 6 6 5 1 4 7 4 3 5 2 2 1 1 2 2 2 1 2 0 1 1 0 1 1 1 1 0 1 0 0 1 0 2 2 3 2 4 5 4 3 4 4 4 5 6 7 8 9 9 10 9 8 6 6 5 4 3 2 2 1 3 2 4 6 6 4 4 5 4 6 6 6 7 7 7 8 8
0 1 1 0 2 5 5 4 2 4 5 6 6 5 3 4 5 5 2 2 2 2 3 3 2 2 1 0 1 2 2 1 0 1 1 1 2 1 1 1 0 2 2 1 2 3 5 1 2 3 3 3 4 5 6 7 9 9 8 8 7 6 6 5 4 3 3 3 3 2 0 4 5 6 4 3 3 5 6 6 5 9 9 8 8 9 10
1 1 3 2 4 4 3 1 1 4 7 7 7 6 3 1 1 3 2 1 2 3 2 1 0 1 1 2 1 1 1 0 1 0 2 2 1 1 1 1 1 2 2 4 5 5 3 1 1 3 2 2 3 4 4 6 7 8 9 8 8 7 6 5 3 3 4 4 4 6 5 6 6 7 6 6 4 8 9 8 6 6 9 9 7 8 8
0 1 2 3 5 7 6 6 6 7 8 9 7 6 4 4 1 2 1 2 2 2 1 1 1 1 1 0 1 1 2 1 1 1 2 2 0 2 1 3 4 4 6 3 1 1 2 1 1 1 0 1 2 3 4 5 5 7 8 9 8 8 8 7 4 4 5 5 6 7 7 8 9 9 11 12 10 9 9 8 7 6 6 8 7 8 8
Wind_Direction
350 349 349 349 349 349 348 347 344 343 338 25 11 205 28 70 207 253 210 211 140 72 347 301 23 223 240 218 60 78 70 70 24 45 15 52 360 6 17 17 25 32 7 15 38 13 351 349 301 336 28 65 327 287 13 15 27 60 332 1 329 353 67 6 295 309 299 290 273 123 31 12 10 353 350 4 334 275 226 208 192 130 285 28 26 68 254
352 351 350 349 350 349 350 352 353 348 357 85 237 72 108 227 269 310 317 85 108 79 354 340 352 340 351 51 74 56 64 34 23 38 20 29 7 18 1 3 37 48 13 33 22 14 34 327 358 346 343 36 273 336 35 32 10 49 239 92 309 17 305 80 337 354 339 346 1 11 6 46 38 314 322 342 341 344 309 116 52 108 229 143 110 207 277
354 354 352 351 350 350 350 352 357 0 347 169 193 77 182 311 272 272 297 356 69 59 232 117 47 24 13 22 31 30 32 39 67 53 31 358 45 22 39 25 355 27 358 25 5 41 75 274 354 1 23 335 334 2 358 33 47 52 207 327 291 105 242 69 53 46 13 353 23 325 311 341 309 289 321 332 0 352 345 48 17 83 306 70 76 277 249
357 356 355 354 352 352 352 352 353 1 2 356 104 146 56 14 45 315 349 359 21 58 291 101 101 49 29 31 30 45 51 30 23 39 55 23 47 60 36 16 20 22 15 14 3 354 20 41 344 24 1 342 341 337 340 334 229 272 337 358 16 182 311 119 145 150 186 210 226 235 157 323 27 302 315 335 5 348 320 232 72 86 167 143 207 204 218
360 359 358 357 355 354 353 353 352 352 5 336 131 29 100 55 65 357 338 331 20 7 14 25 49 45 79 79 339 40 51 13 25 11 85 13 23 53 43 24 29 359 13 354 6 2 14 1 40 13 358 325 326 327 4 341 319 349 19 358 69 49 27 285 100 158 186 220 231 249 129 245 262 271 305 15 10 342 25 46 284 231 80 313 258 207 169
1 2 1 360 359 358 356 355 353 350 351 54 206 57 8 68 273 93 192 140 293 30 353 54 58 39 60 77 359 52 33 35 17 336 61 72 30 38 360 32 38 25 18 19 40 346 14 30 358 321 357 346 353 337 338 339 2 17 11 3 90 131 353 282 14 319 356 345 324 328 273 209 257 291 11 36 6 21 32 344 307 294 124 206 270 231 168
3 3 2 2 2 0 359 357 353 354 342 342 95 74 340 93 316 313 341 96 298 70 325 74 72 49 37 70 38 50 46 24 356 326 14 49 28 42 52 15 20 29 46 69 54 17 14 339 327 343 331 351 333 332 333 320 360 31 343 349 71 66 261 266 72 342 348 328 321 313 10 322 28 13 8 10 18 36 356 319 306 94 63 305 5 321 164
4 4 3 4 3 4 3 0 357 352 343 326 73 41 50 17 24 330 346 335 292 355 29 57 63 63 27 80 3 51 63 35 357 19 35 43 39 20 77 37 31 7 60 83 80 301 243 247 284 292 320 316 304 258 226 259 318 10 336 338 306 93 286 1 41 29 320 304 311 312 78 235 68 12 7 355 333 10 354 297 327 39 34 10 31 50 359
5 4 4 5 5 6 6 5 4 355 346 56 42 67 27 291 273 333 344 9 342 6 29 59 74 67 12 63 359 64 77 85 23 33 14 89 29 18 90 73 34 359 21 7 350 296 281 274 254 250 245 263 227 221 281 341 310 324 314 360 332 42 262 42 73 44 315 303 343 338 355 74 64 26 359 353 338 14 348 1 330 45 38 356 18 37 353
6 6 5 6 6 6 6 8 7 4 342 82 40 32 320 301 276 339 177 52 304 59 29 34 56 41 345 21 21 18 71 103 73 16 318 37 60 27 115 83 71 344 2 316 288 292 286 278 273 264 252 229 249 222 239 233 233 235 254 244 283 187 146 14 43 38 271 279 336 316 342 55 42 348 339 327 312 308 258 353 14 19 6 59 37 357 315
7 7 7 7 8 7 7 8 9 12 11 50 33 24 352 18 332 347 18 79 354 3 58 28 70 31 29 28 35 43 42 30 46 25 282 311 360 48 78 56 41 274 284 299 275 268 269 267 269 271 268 267 256 248 238 246 244 227 231 297 254 145 145 203 149 135 252 302 330 338 35 134 204 230 284 293 317 342 9 13 343 15 43 99 90 13 308
7 7 7 8 8 8 8 9 9 12 20 3 220 18 350 293 199 151 43 80 22 8 67 61 17 18 14 56 55 41 28 24 28 18 12 356 29 46 38 47 42 356 268 292 295 283 293 291 295 303 303 313 293 281 244 242 259 241 218 215 223 182 94 173 192 116 273 307 357 33 73 223 265 307 301 308 302 2 334 71 3 13 31 38 30 9 3
7 8 8 8 7 8 8 8 9 10 9 358 348 17 329 342 97 53 83 101 51 2 35 2 4 30 33 47 44 26 18 5 23 13 48 48 36 34 17 342 358 323 312 311 319 343 348 301 318 332 326 340 321 21 35 48 27 14 303 259 216 195 142 174 22 152 28 30 17 93 229 248 296 298 296 298 304 15 1 324 6 7 23 7 38 10 351
6 7 8 8 7 6 7 8 7 6 6 3 356 324 312 359 42 30 43 87 15 315 359 33 12 20 23 38 46 22 7 9 352 6 61 48 46 16 357 356 335 307 331 346 7 30 10 31 8 2 343 355 4 18 341 345 35 22 9 5 8 188 124 117 241 104 188 187 145 176 270 323 331 357 348 14 358 347 22 324 313 353 7 11 349 356 359
5 7 7 8 7 6 7 6 6 5 3 1 319 311 333 3 53 113 250 87 125 306 27 61 331 16 38 20 39 30 20 359 20 357 23 59 39 349 348 338 340 357 349 27 357 22 97 79 24 12 339 24 18 308 328 358 334 26 359 346 349 138 165 200 137 259 124 124 38 3 21 252 271 237 274 328 337 330 319 271 288 350 6 5 358 343 335
4 6 7 7 7 6 5 4 5 6 6 357 14 351 299 332 345 106 100 124 106 44 341 357 36 55 27 6 12 61 36 12 339 337 9 359 27 324 1 357 2 8 15 41 19 33 29 84 42 71 38 324 274 317 334 325 334 332 3 348 5 19 86 142 149 173 76 61 117 180 166 250 231 291 312 317 315 326 328 74 298 319 16 354 349 342 347
3 3 5 7 7 6 5 4 3 3 3 8 344 326 317 347 2 1 53 13 77 163 318 1 4 80 61 7 16 25 33 32 338 21 346 344 332 7 351 354 354 21 4 58 12 41 21 27 48 105 217 315 3 339 301 19 331 333 342 2 10 12 5 25 40 43 79 138 95 219 210 246 276 301 317 314 313 324 65 42 273 319 353 338 339 332 346
2 2 3 5 6 6 5 4 4 3 3 357 359 300 308 331 352 358 57 72 82 335 332 350 358 54 48 56 87 326 50 17 17 3 73 283 343 1 338 348 346 342 18 66 10 51 32 43 24 52 36 300 330 47 357 309 345 328 346 329 352 352 342 38 71 132 41 81 283 359 345 344 343 319 311 311 308 334 95 200 245 328 327 322 321 321 330
0 1 1 3 4 4 4 5 4 5 4 2 347 329 282 335 343 16 107 53 62 104 296 315 4 43 59 57 81 66 94 106 136 93 309 1 319 305 312 42 352 359 359 55 35 65 57 359 325 91 73 324 18 107 280 27 297 299 358 10 358 354 339 326 49 32 17 310 118 210 234 233 283 319 321 311 348 218 218 241 303 305 307 311 314 318 336
356 359 0 1 2 2 2 2 3 4 4 2 5 282 274 295 346 22 41 68 71 244 279 278 21 21 328 106 57 38 3 20 64 122 133 112 277 355 28 7 340 63 1 39 43 360 73 355 306 336 22 325 306 172 30 287 43 34 310 306 95 302 19 319 352 302 52 41 68 9 315 267 14 327 338 16 70 281 283 310 309 301 304 312 325 343 343
353 354 356 358 359 359 0 0 0 1 2 3 1 339 334 304 8 350 34 345 137 36 308 295 10 337 5 348 345 122 137 163 170 82 216 189 254 82 72 12 279 8 8 35 54 347 20 339 323 349 283 86 302 58 320 294 321 288 172 315 63 266 64 321 344 148 148 298 149 195 202 254 3 26 48 317 121 271 297 318 302 310 313 327 333 331 347
349 351 354 355 357 358 358 358 358 359 359 359 358 334 290 290 332 314 328 258 147 183 218 266 242 260 272 255 248 164 148 153 179 151 134 63 329 115 158 137 58 100 215 86 37 3 2 289 351 22 342 305 17 322 272 50 333 275 324 71 29 314 131 187 237 263 150 220 232 253 264 267 266 228 231 251 259 263 275 268 272 293 309 335 323 315 329
346 348 350 352 353 354 355 355 355 356 356 355 2 34 300 305 320 327 312 86 279 290 287 307 301 281 270 268 224 162 155 144 129 107 126 110 358 5 101 90 349 158 111 110 164 163 202 128 243 195 325 228 299 308 341 134 241 357 338 285 171 265 194 175 79 278 270 258 237 307 309 284 292 260 242 254 279 270 254 274 299 284 293 315 306 310 316
343 343 347 349 350 351 351 352 352 350 348 351 355 330 302 291 285 338 347 73 59 334 329 294 34 351 357 318 188 103 106 124 166 189 172 128 114 318 335 227 181 48 46 220 174 139 204 137 215 217 234 251 86 59 71 331 287 192 27 326 339 320 302 88 156 264 31 311 346 300 290 306 324 270 274 268 260 272 282 288 276 279 309 316 307 287 302
339 339 342 345 346 347 347 348 348 343 340 344 343 292 265 291 289 31 15 24 343 50 109 306 309 206 15 303 170 100 215 191 157 165 160 120 134 148 186 220 177 154 206 211 135 63 55 103 330 36 282 266 110 292 213 91 307 106 6 266 5 318 237 71 252 272 198 247 301 299 296 278 252 225 267 292 294 294 289 273 271 271 275 289 284 285 290
336 337 338 339 340 341 342 344 342 338 334 337 344 327 334 275 302 332 246 246 206 103 63 330 277 317 356 11 24 245 269 197 181 175 197 192 179 184 190 267 17 52 128 135 111 119 152 83 165 176 132 292 122 171 229 197 182 144 150 241 207 254 342 272 297 284 279 288 292 301 317 308 315 275 248 251 262 285 295 290 293 299 6 345 296 208 279
333 333 333 333 333 334 336 337 337 336 332 331 337 291 249 276 275 252 2 317 35 333 21 298 283 311 356 326 280 292 254 218 206 180 199 219 191 171 129 143 106 35 120 101 147 135 97 113 130 245 183 232 168 205 164 331 170 187 218 270 282 42 333 266 31 357 331 263 286 354 3 319 316 318 290 290 290 282 291 305 311 309 331 60 332 302 325
329 328 326 326 326 326 330 333 334 334 333 328 313 276 231 255 264 278 295 12 67 168 212 249 297 299 310 260 255 254 254 216 191 208 209 225 177 181 187 173 149 100 71 83 11 5 79 39 270 233 183 275 56 308 213 156 102 37 339 265 229 139 232 138 266 195 260 272 276 259 223 264 258 267 303 305 298 303 321 317 309 308 315 75 17 328 341
327 326 323 322 323 323 322 328 331 334 333 332 315 313 213 234 253 283 351 17 63 79 227 258 283 336 13 296 308 310 279 190 214 213 227 94 145 135 144 173 159 166 113 110 129 149 152 228 206 184 210 214 114 267 32 318 52 222 240 239 238 221 184 191 222 227 264 269 270 273 250 259 285 291 295 291 287 299 317 305 304 310 312 335 86 241 290
325 322 320 319 318 317 318 322 328 333 335 330 344 42 47 331 112 52 16 45 25 89 70 8 357 260 293 309 277 274 300 278 209 219 161 123 123 107 152 128 181 152 133 163 154 250 228 200 268 281 312 68 144 201 79 240 246 251 269 309 295 288 222 228 212 184 247 260 273 272 262 271 273 278 277 274 270 297 303 301 300 319 306 304 17 321 235
321 319 317 317 314 312 312 314 323 328 342 340 31 65 47 23 293 102 31 29 19 86 202 135 232 287 317 240 243 280 275 241 194 224 201 171 151 156 182 104 39 121 63 28 71 223 181 292 230 282 46 77 127 114 198 135 266 309 278 281 279 286 249 249 236 224 243 272 276 270 274 276 284 300 295 289 298 310 303 304 299 354 290 284 336 268 275
317 316 314 311 308 307 305 306 313 320 324 94 166 184 171 194 271 318 357 11 4 55 67 6 327 347 304 316 311 314 271 198 81 23 356 67 29 12 39 111 189 174 142 158 198 56 245 219 151 250 127 243 86 188 81 120 190 241 271 296 291 289 286 288 296 290 279 284 301 331 322 302 296 297 287 293 301 309 308 305 305 68 240 269 257 223 290
313 313 311 306 304 303 301 301 301 300 262 259 275 284 280 275 271 269 302 331 51 219 203 82 189 242 286 257 308 313 338 17 9 32 12 321 173 175 80 343 56 49 332 82 330 183 225 154 238 37 263 37 104 257 141 188 210 243 282 297 312 314 313 303 293 296 301 317 351 302 292 297 298 298 296 297 289 302 320 321 328 37 95 298 323 359 320
312 311 309 306 298 301 302 304 301 291 265 288 359 354 280 235 243 239 165 147 175 244 49 133 332 343 271 304 24 286 1 53 288 55 30 296 166 85 208 61 356 91 312 158 250 71 322 62 83 242 359 334 55 78 298 264 269 301 315 319 316 317 319 312 305 300 312 315 315 276 267 274 282 288 303 318 333 325 317 320 18 64 59 309 314 334 321
311 310 308 307 302 303 306 306 331 89 328 276 246 242 193 99 119 147 147 149 83 335 41 281 146 24 344 349 3 275 287 61 360 279 78 274 21 175 260 89 337 71 284 98 20 188 162 249 182 55 272 274 51 354 253 269 294 303 314 316 305 318 321 328 305 301 300 302 302 305 304 307 311 309 331 345 328 311 324 342 13 99 122 322 314 311 318
311 308 307 306 304 303 301 128 79 54 41 300 273 237 139 124 87 137 172 138 143 143 135 249 89 211 164 211 301 275 33 42 287 346 292 75 350 334 105 127 57 260 190 95 223 359 121 264 70 286 290 66 242 193 231 222 260 287 290 284 290 299 280 284 294 307 304 301 302 304 310 316 335 322 299 285 288 309 331 349 19 64 110 124 220 273 287
309 311 310 301 300 68 354 245 222 118 349 272 282 101 100 117 114 80 73 22 296 161 164 204 30 242 173 211 260 283 70 6 328 16 345 41 245 282 45 44 112 256 40 1 11 74 264 35 107 345 345 194 261 240 243 244 256 281 295 287 282 272 290 302 297 304 308 311 314 315 308 327 327 324 313 320 322 337 358 357 347 63 195 172 181 221 260
309 313 326 10 18 10 332 351 15 326 327 310 310 118 335 89 57 46 27 51 220 111 302 101 240 256 285 115 237 249 84 270 72 91 328 251 29 323 11 105 230 78 353 206 243 190 101 36 114 150 264 255 257 276 274 266 262 254 267 288 288 287 285 289 299 309 312 316 318 320 325 318 312 307 317 309 337 18 352 318 306 261 233 235 165 176 246
311 308 16 63 84 286 221 255 356 340 323 285 69 43 324 212 79 318 232 176 73 282 240 157 241 207 163 214 273 292 162 110 28 26 60 277 111 306 24 55 298 76 315 10 291 96 16 342 348 36 294 307 334 279 277 277 286 287 290 284 277 276 279 280 273 271 276 274 276 276 263 273 290 296 297 310 46 27 271 272 256 246 247 239 101 123 104
16 4 351 322 272 262 297 315 351 329 309 32 287 108 305 210 100 271 206 100 313 246 148 239 222 188 186 195 204 292 323 74 40 313 199 301 114 155 255 79 265 96 272 83 249 54 116 247 285 60 305 283 257 267 295 296 298 295 296 294 292 283 271 271 278 266 261 268 270 271 270 262 246 243 334 36 15 249 242 247 246 251 266 67 101 103 125
6 322 344 303 291 312 305 321 318 235 339 19 2 307 30 315 259 213 238 217 207 233 178 200 214 338 265 119 103 282 285 104 201 148 122 224 253 71 57 230 238 82 293 271 277 65 66 69 353 201 235 238 261 284 294 302 296 295 296 297 291 286 283 279 276 277 278 280 278 277 275 267 269 98 105 112 125 261 252 234 253 261 316 44 52 55 131
343 232 267 294 283 280 301 288 188 27 133 216 114 278 214 215 257 319 147 146 243 199 6 199 355 67 18 309 199 154 290 178 137 112 93 355 291 132 220 258 17 116 245 238 140 55 78 99 294 283 260 264 281 295 302 303 302 303 305 305 301 296 296 293 291 288 278 275 278 274 270 256 160 137 153 158 199 215 220 237 255 288 1 26 82 65 51
288 269 219 281 295 267 199 6 271 113 101 349 40 339 334 343 232 194 267 230 305 89 280 305 299 185 314 47 342 282 208 185 116 335 74 224 290 62 101 308 115 331 229 113 71 59 48 275 262 255 265 284 293 300 304 299 299 297 292 295 294 296 298 296 290 284 284 280 278 276 271 222 134 138 150 149 153 181 216 231 235 275 325 48 73 77 80
259 196 125 222 346 279 108 337 255 43 354 114 113 215 258 303 295 327 359 300 301 38 190 93 326 72 336 295 246 287 4 353 36 79 338 275 95 239 135 240 212 232 103 42 45 77 237 230 221 243 276 291 297 298 299 305 306 304 303 304 303 305 304 303 296 285 285 288 294 307 1 66 74 72 107 137 168 182 188 192 210 223 56 69 87 93 91
12 18 295 6 332 271 52 306 320 118 205 252 180 221 214 253 279 178 175 247 92 174 323 64 89 69 332 276 21 328 109 195 308 98 247 156 341 256 131 251 253 34 104 136 73 348 337 278 275 283 289 292 291 296 302 307 309 305 306 310 312 312 312 310 310 300 289 295 300 338 44 70 122 165 155 158 149 149 165 179 182 156 128 106 100 98 103
109 161 85 74 311 304 126 230 305 330 275 169 217 192 230 271 246 286 257 61 107 81 61 40 44 71 336 261 132 238 305 94 29 245 208 92 100 276 242 223 72 61 23 52 46 230 231 243 270 274 272 281 299 307 315 310 310 312 320 316 313 311 307 305 305 300 289 293 323 38 138 198 195 168 138 111 89 107 136 157 172 143 128 106 98 101 100
344 320 197 113 131 273 160 218 240 206 203 263 234 279 271 256 240 235 247 83 133 160 156 203 118 168 128 290 9 341 352 107 200 264 65 50 200 259 6 93 358 17 101 264 266 263 271 267 267 274 288 300 310 320 318 318 318 319 315 310 309 308 307 308 306 306 299 324 336 288 165 183 194 167 124 111 77 62 87 73 81 94 100 102 104 103 100
193 261 80 148 234 207 212 251 231 284 289 261 277 275 263 267 36 1 329 347 147 86 80 72 15 344 7 311 86 209 241 239 350 301 182 218 350 25 9 34 79 47 164 159 231 226 240 258 270 291 295 309 322 325 325 325 326 324 321 316 313 312 313 312 311 309 307 274 262 244 217 205 166 147 132 139 139 156 134 116 107 103 98 92 90 95 100
213 129 151 207 226 257 255 267 338 284 274 291 279 295 26 42 10 316 303 324 62 91 147 112 165 95 299 269 61 17 326 304 85 266 345 9 103 213 196 187 112 105 264 175 215 236 231 251 271 296 322 331 327 326 324 327 327 328 330 327 319 310 305 303 305 305 310 287 276 223 230 210 143 129 134 156 158 143 132 123 119 107 96 92 88 87 84
93 341 319 251 349 304 275 307 356 309 326 333 353 346 7 43 357 300 280 11 335 352 357 36 27 99 235 65 328 355 289 296 215 339 41 308 239 252 70 60 49 185 238 250 235 251 251 249 337 335 311 317 328 332 335 342 344 342 337 335 332 326 322 318 325 336 329 330 329 326 181 121 117 117 128 118 123 108 102 96 105 108 103 103 104 102 98
278 174 229 201 202 240 26 355 338 322 321 312 313 307 339 318 272 291 305 36 7 29 35 151 227 81 29 24 47 37 281 315 32 279 181 224 268 66 98 161 244 208 218 227 219 226 231 239 257 267 301 318 325 334 348 351 344 342 341 346 352 355 344 338 352 28 48 35 46 76 75 86 99 93 69 41 67 92 81 64 49 73 100 95 91 90 91
74 243 254 257 244 249 252 260 281 257 251 264 279 270 264 265 250 259 262 44 31 69 300 288 74 41 58 105 225 215 297 17 261 17 8 303 53 120 190 187 185 200 194 202 215 192 195 218 245 264 260 21 354 349 355 352 354 351 351 352 355 2 5 358 8 55 64 74 80 86 86 93 98 97 98 102 96 78 79 86 84 78 76 88 86 85 90